User: anonymous   Login
Location: Newark
(44.6768°N, 22.5302°E)
Time: 09:29:39
(UTC+00:00)
Language:

METEOR 1-16 DEB - Orbit

View from above orbital plane
View from above orbital plane
View from above satellite
View from above satellite

Ground track
Ground track

The orbit data is extracted from the following two-line orbital elements,

1 42999U 74011C   22329.98554365  .00000938  00000-0  43541-3 0  9999
2 42999  81.2331 216.7955 0033777 126.9606 233.4671 14.19687835328950
Epoch (UTC): 25 November 2022 23:39:10
Eccentricity: 0.0033777
inclination: 81.2331°
perigee height: 802 km
apogee height: 851 km
right ascension of ascending node: 216.7955°
argument of perigee: 126.9606°
revolutions per day: 14.19687835
mean anomaly at epoch: 233.4671°
orbit number at epoch: 32895

The dashed part of the orbit path shows where the satellite is in the earth's shadow,  

DLR